Latest Weather Observations for Bankstown

IDN60901

Issued at 1:32 pm EDT Sunday 21 December 2014 (issued every 10 minutes, with the page automatically refreshed every 10 minutes)

About weather observations | Map of Sydney area stations | Latest observations for Sydney area | Other Formats
Station Details ID: 066137 Name: BANKSTOWN AIRPORT AWS Lat: -33.92 Lon: 150.99 Height: 6.5 m
Data from the previous 72 hours. | See also: Recent months at Bankstown
Date/Time
EDT
Tmp

°C
App
Tmp
°C
Dew
Point
°C
Rel
Hum
%
Delta-T

°C
Wind Press
QNH
hPa
Press
MSL
hPa
Rain
since
9 am
mm
Dir
 
Spd
km/h
Gust
km/h
Spd
kts
Gust
kts
21/01:30pm 27.7 25.9 15.4 47 7.5 ENE 19 35 10 19 1016.5 1016.5 0.0
21/01:00pm 26.5 25.2 12.5 41 8.1 ENE 11 17 6 9 1017.1 1017.1 0.0
21/12:30pm 26.6 25.3 13.7 45 7.6 NNE 13 24 7 13 1017.4 1017.4 0.0
21/12:00pm 25.7 25.5 12.9 45 7.4 NNW 6 17 3 9 1017.7 1017.7 0.0
21/11:30am 25.4 24.1 13.6 48 6.9 N 13 19 7 10 1017.7 1017.7 0.0
21/11:00am 24.5 23.3 12.8 48 6.7 ESE 11 22 6 12 1017.8 1017.8 0.0
21/10:30am 25.1 24.6 14.8 52 6.2 NNE 11 26 6 14 1018.1 1018.1 0.0
21/10:00am 24.0 22.8 14.1 54 5.8 NNW 13 24 7 13 1018.3 1018.3 0.0
21/09:30am 22.6 22.1 13.7 57 5.2 ENE 9 15 5 8 1018.5 1018.5 0.0
21/09:00am 21.4 21.3 13.8 62 4.4 WNW 7 11 4 6 1018.8 1018.8 0.0
21/08:30am 20.6 20.3 13.3 63 4.2 W 7 9 4 5 1018.7 1018.7 0.0
21/08:00am 19.6 19.5 13.3 67 3.6 WSW 6 9 3 5 1018.7 1018.7 0.0
21/07:30am 18.2 19.3 13.5 74 2.7 CALM 0 7 0 4 1018.4 1018.4 0.0
21/07:00am 16.5 16.2 12.8 79 2.0 WNW 6 7 3 4 1018.3 1018.3 0.0
21/06:30am 15.6 16.5 12.9 84 1.5 CALM 0 0 0 0 1018.0 1018.0 0.0
21/05:30am 14.4 15.1 12.1 86 1.2 CALM 0 0 0 0 1017.8 1017.8 0.0
21/05:00am 14.6 15.3 12.3 86 1.2 CALM 0 0 0 0 1017.5 1017.5 0.0
21/04:30am 14.6 15.3 12.3 86 1.3 CALM 0 0 0 0 1017.5 1017.5 0.0
21/03:30am 15.2 16.1 12.9 86 1.3 CALM 0 0 0 0 1017.4 1017.4 0.0
21/03:00am 15.3 16.2 13.0 86 1.3 CALM 0 0 0 0 1017.6 1017.6 0.0
21/02:30am 15.7 16.6 13.0 84 1.5 CALM 0 0 0 0 1017.7 1017.7 0.0
21/02:00am 15.9 16.8 12.8 82 1.7 CALM 0 0 0 0 1017.9 1017.9 0.0
21/01:30am 16.5 17.4 12.8 79 2.1 CALM 0 0 0 0 1018.2 1018.2 0.0
21/01:00am 16.9 17.8 12.8 77 2.3 CALM 0 0 0 0 1018.5 1018.5 0.0
21/12:30am 17.3 18.1 12.6 74 2.6 CALM 0 0 0 0 1018.7 1018.7 0.0
 
Date/Time
EDT
Tmp

°C
App
Tmp
°C
Dew
Point
°C
Rel
Hum
%
Delta-T

°C
Wind Press
QNH
hPa
Press
MSL
hPa
Rain
since
9 am
mm
Dir
 
Spd
km/h
Gust
km/h
Spd
kts
Gust
kts
20/11:30pm 18.2 18.1 12.0 67 3.4 NNE 4 7 2 4 1019.2 1019.2 0.0
20/11:00pm 19.3 18.7 11.8 62 4.1 NNE 6 9 3 5 1019.0 1019.0 0.0
20/10:30pm 19.9 19.3 11.7 59 4.5 NE 6 9 3 5 1018.9 1018.9 0.0
20/10:00pm 19.9 19.0 11.4 58 4.7 NE 7 11 4 6 1018.7 1018.7 0.0
20/09:30pm 20.2 19.0 11.7 58 4.7 NE 9 17 5 9 1018.5 1018.5 0.0
20/09:00pm 20.5 19.2 11.4 56 5.0 NE 9 19 5 10 1018.0 1018.0 0.0
20/08:30pm 20.7 18.1 10.8 53 5.4 ENE 15 22 8 12 1017.6 1017.6 0.0
20/08:00pm 21.1 18.5 10.6 51 5.7 ENE 15 20 8 11 1017.1 1017.1 0.0
20/07:30pm 21.7 18.7 10.5 49 6.1 ENE 17 24 9 13 1016.8 1016.8 0.0
20/07:00pm 22.0 18.5 10.2 47 6.4 ENE 19 24 10 13 1016.4 1016.4 0.0
20/06:30pm 22.3 18.8 10.1 46 6.6 NE 19 24 10 13 1016.0 1016.0 0.0
20/05:30pm 23.0 19.3 10.1 44 7.0 ENE 20 30 11 16 1015.3 1015.3 0.0
20/05:00pm 24.1 20.4 10.0 41 7.7 E 20 32 11 17 1015.3 1015.3 0.0
20/04:30pm 24.1 20.1 10.4 42 7.6 ENE 22 33 12 18 1015.4 1015.4 0.0
20/04:00pm 23.7 20.0 10.0 42 7.5 ENE 20 32 11 17 1015.6 1015.6 0.0
20/03:30pm 23.8 19.6 9.8 41 7.6 ENE 22 30 12 16 1015.8 1015.8 0.0
20/03:00pm 24.2 20.4 9.8 40 7.9 E 20 32 11 17 1015.9 1015.9 0.0
20/02:30pm 24.0 19.8 9.9 41 7.7 E 22 32 12 17 1016.1 1016.1 0.0
20/02:00pm 24.0 20.2 9.9 41 7.7 E 20 26 11 14 1016.3 1016.3 0.0
20/01:30pm 23.4 19.3 8.7 39 7.9 SE 20 30 11 16 1016.6 1016.6 0.0
20/01:00pm 23.7 21.1 7.8 36 8.4 ENE 11 15 6 8 1017.0 1017.0 0.0
20/12:30pm 23.4 22.1 10.1 43 7.3 W 7 13 4 7 1017.4 1017.4 0.0
20/12:00pm 22.4 20.8 8.1 40 7.5 WSW 6 7 3 4 1017.6 1017.6 0.0
20/11:30am 22.6 19.9 9.0 42 7.3 S 13 19 7 10 1018.0 1018.0 0.0
20/11:00am 21.0 19.6 8.9 46 6.4 SW 6 7 3 4 1018.2 1018.2 0.0
20/10:30am 20.7 18.5 9.3 48 6.1 ENE 11 19 6 10 1018.3 1018.3 0.0
20/10:00am 21.2 19.3 9.1 46 6.4 ESE 9 15 5 8 1018.3 1018.3 0.0
20/09:30am 20.4 18.9 9.3 49 5.9 SSE 7 15 4 8 1018.5 1018.5 0.0
20/09:00am 20.1 18.1 8.8 48 5.9 ESE 9 13 5 7 1018.6 1018.6 0.0
20/08:30am 20.1 18.2 9.1 49 5.8 ESE 9 17 5 9 1018.6 1018.6 0.0
20/08:00am 19.2 17.8 11.0 59 4.5 S 9 11 5 6 1018.5 1018.5 0.0
20/07:30am 17.7 17.1 11.7 68 3.3 S 6 7 3 4 1018.2 1018.2 0.0
20/07:00am 16.5 16.0 11.9 74 2.5 S 6 7 3 4 1018.0 1018.0 0.0
20/06:30am 16.1 15.6 11.9 76 2.3 S 6 6 3 3 1017.8 1017.8 0.0
20/06:00am 16.0 15.3 11.4 74 2.5 S 6 7 3 4 1017.6 1017.6 0.0
20/05:30am 16.1 15.1 11.1 72 2.7 S 7 9 4 5 1017.6 1017.6 0.0
20/05:00am 16.5 15.6 11.2 71 2.8 SSE 7 9 4 5 1017.4 1017.4 0.0
20/04:30am 16.8 15.8 10.9 68 3.2 S 7 13 4 7 1017.3 1017.3 0.0
20/04:00am 16.9 15.5 11.0 68 3.2 S 9 13 5 7 1017.1 1017.1 0.0
20/03:30am 17.1 15.8 11.2 68 3.2 S 9 11 5 6 1017.2 1017.2 0.0
20/03:00am 17.1 16.2 11.4 69 3.1 SSW 7 9 4 5 1017.4 1017.4 0.0
20/02:30am 17.1 15.6 10.7 66 3.4 S 9 11 5 6 1017.5 1017.5 0.0
20/02:00am 17.6 16.1 10.5 63 3.8 S 9 11 5 6 1017.7 1017.7 0.0
20/01:30am 18.1 16.5 10.2 60 4.2 S 9 13 5 7 1017.9 1017.9 0.0
20/01:00am 18.3 16.5 9.6 57 4.6 S 9 11 5 6 1018.3 1018.3 0.0
20/12:30am 18.6 17.1 9.1 54 5.0 SSE 7 13 4 7 1018.5 1018.5 0.0
20/12:00am 19.0 17.1 8.9 52 5.3 SE 9 13 5 7 1018.8 1018.8 0.0
 
Date/Time
EDT
Tmp

°C
App
Tmp
°C
Dew
Point
°C
Rel
Hum
%
Delta-T

°C
Wind Press
QNH
hPa
Press
MSL
hPa
Rain
since
9 am
mm
Dir
 
Spd
km/h
Gust
km/h
Spd
kts
Gust
kts
19/11:30pm 19.1 16.0 9.0 52 5.3 SSE 15 20 8 11 1018.9 1018.9 0.0
19/11:00pm 19.3 15.8 8.9 51 5.4 SE 17 20 9 11 1019.0 1019.0 0.0
19/10:30pm 19.2 15.3 8.8 51 5.4 ESE 19 24 10 13 1018.7 1018.7 0.0
19/10:00pm 19.2 15.3 8.5 50 5.5 SE 19 26 10 14 1018.4 1018.4 0.0
19/09:30pm 19.4 15.6 9.0 51 5.5 ESE 19 26 10 14 1018.0 1018.0 0.0
19/09:00pm 19.5 15.0 8.5 49 5.7 SE 22 28 12 15 1017.7 1017.7 0.0
19/08:30pm 19.6 15.5 8.6 49 5.7 ESE 20 28 11 15 1017.4 1017.4 0.0
19/08:00pm 19.8 15.3 8.5 48 5.9 SE 22 33 12 18 1016.9 1016.9 0.0
19/07:30pm 19.9 14.6 8.3 47 6.0 SE 26 32 14 17 1016.3 1016.3 0.0
19/07:00pm 19.9 14.0 7.6 45 6.3 ESE 28 33 15 18 1015.6 1015.6 0.0
19/06:30pm 20.0 14.8 8.7 48 5.9 SE 26 33 14 18 1015.0 1015.0 0.0
19/06:00pm 20.0 14.5 9.3 50 5.7 SE 28 35 15 19 1014.5 1014.5 0.0
19/05:30pm 20.8 15.2 8.8 46 6.3 ESE 28 37 15 20 1013.8 1013.8 0.0
19/05:00pm 21.5 16.0 9.1 45 6.6 ESE 28 37 15 20 1013.4 1013.4 0.0
19/04:30pm 21.8 16.3 9.0 44 6.8 SE 28 37 15 20 1013.2 1013.2 0.0
19/04:00pm 21.7 15.6 8.2 42 7.1 SE 30 41 16 22 1013.0 1013.0 0.0
19/03:30pm 22.0 17.1 8.5 42 7.1 SE 24 33 13 18 1013.0 1013.0 0.0
19/03:00pm 22.5 16.9 8.6 41 7.4 SE 28 37 15 20 1012.9 1012.9 0.0
19/02:30pm 22.1 16.9 8.9 43 7.0 ESE 26 35 14 19 1012.9 1012.9 0.0
19/02:00pm 22.5 16.6 9.0 42 7.2 SE 30 37 16 20 1013.0 1013.0 0.0
19/01:30pm 22.2 16.9 10.0 46 6.6 ESE 28 37 15 20 1013.3 1013.3 0.0
19/01:00pm 20.9 15.2 8.2 44 6.6 ESE 28 37 15 20 1013.3 1013.3 0.0
19/12:30pm 21.8 16.0 9.3 45 6.7 ESE 30 37 16 20 1013.2 1013.2 0.0
19/12:00pm 22.2 17.3 10.0 46 6.6 ESE 26 35 14 19 1013.2 1013.2 0.0
19/11:30am 21.7 17.5 9.9 47 6.4 SE 22 32 12 17 1013.2 1013.2 0.0
19/11:00am 21.7 17.1 9.6 46 6.5 SE 24 32 13 17 1013.2 1013.2 0.0
19/10:30am 21.5 17.0 8.7 44 6.8 SE 22 32 12 17 1013.2 1013.2 0.0
19/10:00am 21.5 16.9 9.7 47 6.4 SE 24 33 13 18 1012.9 1012.9 0.0
19/09:30am 21.9 17.4 10.1 47 6.4 SSE 24 35 13 19 1012.9 1012.9 0.0
19/09:00am 21.3 17.5 11.3 53 5.5 SSE 22 30 12 16 1012.7 1012.7 0.0
19/08:30am 20.6 16.4 11.0 54 5.3 SE 24 35 13 19 1012.6 1012.6 0.0
19/08:00am 19.9 15.9 11.7 59 4.5 SSE 24 33 13 18 1012.4 1012.4 0.0
19/07:30am 19.5 16.5 12.0 62 4.2 SSE 19 30 10 16 1012.1 1012.1 0.0
19/07:00am 18.6 15.6 11.9 65 3.7 SSE 19 24 10 13 1011.5 1011.5 0.0
19/06:30am 17.9 14.5 12.6 71 3.0 SSE 22 32 12 17 1011.1 1011.1 0.0
19/06:00am 17.6 14.6 12.7 73 2.7 SSE 20 28 11 15 1010.5 1010.5 0.0
19/05:30am 17.5 14.8 13.0 75 2.5 SSE 19 28 10 15 1009.9 1009.9 0.0
19/05:00am 17.8 15.3 14.1 79 2.1 SSE 20 33 11 18 1009.2 1009.2 0.0
19/04:30am 18.0 15.3 14.5 80 2.0 SSE 22 28 12 15 1008.7 1008.7 0.0
19/04:00am 19.2 20.0 17.2 88 1.2 WSW 9 13 5 7 1007.6 1007.6 0.0
19/03:30am 19.2 20.4 17.3 89 1.2 WSW 7 11 4 6 1007.4 1007.4 0.0
19/03:00am 18.9 20.9 16.9 88 1.2 SW 2 7 1 4 1007.1 1007.1 0.0
19/02:30am 19.2 21.3 17.2 88 1.2 SW 2 6 1 3 1006.7 1006.7 0.0
19/02:00am 19.4 20.7 17.5 89 1.2 SW 7 9 4 5 1006.4 1006.4 0.0
19/01:30am 19.4 20.9 17.5 89 1.2 SW 6 7 3 4 1006.3 1006.3 0.0
19/01:22am 19.7 21.7 17.8 89 1.2 SW 4 7 2 4 1006.2 1006.2 0.0
19/01:00am 19.6 22.2 17.6 88 1.2 CALM 0 0 0 0 1006.3 1006.3 0.0
19/12:35am 19.9 21.4 17.7 87 1.4 SW 6 7 3 4 1006.5 1006.5 0.0
19/12:30am 19.9 21.8 17.7 87 1.4 S 4 7 2 4 1006.5 1006.5 0.0
19/12:00am 20.4 23.0 17.6 84 1.7 CALM 0 0 0 0 1006.4 1006.4 0.0
 
Date/Time
EDT
Tmp

°C
App
Tmp
°C
Dew
Point
°C
Rel
Hum
%
Delta-T

°C
Wind Press
QNH
hPa
Press
MSL
hPa
Rain
since
9 am
mm
Dir
 
Spd
km/h
Gust
km/h
Spd
kts
Gust
kts
18/11:30pm 20.9 23.8 18.1 84 1.7 CALM 0 0 0 0 1006.5 1006.5 0.0
18/11:00pm 21.6 24.5 18.2 81 2.1 CALM 0 0 0 0 1006.5 1006.5 0.0
18/10:30pm 21.9 23.2 17.5 76 2.7 SE 7 9 4 5 1006.5 1006.5 0.0
18/10:00pm 23.1 24.8 18.4 75 3.0 E 7 9 4 5 1006.3 1006.3 0.0
18/09:30pm 23.3 25.5 18.4 74 3.1 NNE 4 7 2 4 1006.1 1006.1 0.0
18/09:00pm 23.5 24.8 18.4 73 3.2 NNE 9 13 5 7 1005.8 1005.8 0.0
18/08:30pm 23.9 24.8 18.5 72 3.4 NE 11 17 6 9 1005.5 1005.5 0.0
18/08:00pm 24.3 24.5 18.5 70 3.7 ENE 15 20 8 11 1005.3 1005.3 0.0
18/07:30pm 24.8 24.1 18.3 67 4.1 ENE 19 28 10 15 1005.0 1005.0 0.0
18/07:00pm 25.4 24.5 17.8 62 4.8 ENE 19 26 10 14 1004.5 1004.5 0.0
18/06:30pm 25.9 25.4 17.8 61 5.1 ENE 17 26 9 14 1004.2 1004.2 0.0
18/06:00pm 26.5 25.8 17.3 57 5.8 ENE 17 26 9 14 1003.7 1003.7 0.0
18/05:30pm 26.6 26.6 17.1 56 5.9 E 13 19 7 10 1003.5 1003.5 0.0
18/05:00pm 26.5 26.0 17.0 56 5.9 E 15 22 8 12 1003.6 1003.6 0.0
18/04:30pm 26.5 25.5 16.7 55 6.1 E 17 26 9 14 1003.9 1003.9 0.0
18/04:00pm 26.6 25.4 17.1 56 5.9 ENE 19 28 10 15 1004.4 1004.4 0.0
18/03:30pm 27.1 27.1 18.1 58 5.7 ENE 15 22 8 12 1004.9 1004.9 0.0
18/03:00pm 25.9 24.9 16.5 56 5.8 ENE 17 26 9 14 1005.3 1005.3 0.0
18/02:30pm 26.1 24.7 16.6 55 5.9 ENE 19 28 10 15 1005.6 1005.6 0.0
18/02:00pm 26.0 24.9 16.3 55 6.0 NE 17 28 9 15 1006.0 1006.0 0.0

Latest Capital City Observations: Canberra | Sydney | Melbourne | Brisbane | Adelaide | Perth | Hobart | Darwin

Other Formats:

Comma delimited format used in spreadsheet applications
http://www.bom.gov.au/fwo/IDN60901/IDN60901.94765.axf

JavaScript Object Notation format (JSON) in row-major order
http://www.bom.gov.au/fwo/IDN60901/IDN60901.94765.json